Regional Weather Roundup
Issued by NWS Charleston, SC

Home | Current Version | Previous Version | Text Only | Print | Product List | Glossary On
Versions: 1 2 3 4 5 6 7 8 9 10 11 12 13 14 15 16 17 18 19 20 21 22 23 24 25 26 27 28 29 30 31 32 33 34 35 36 37 38 39 40 41 42 43 44 45 46 47 48 49 50
000
ASUS42 KCHS 230925
RWRCHS

REGIONAL WEATHER ROUNDUP
NATIONAL WEATHER SERVICE CHARLESTON SC
500 AM EDT TUE SEP 23 2014

NOTE: "FAIR" INDICATES FEW OR NO CLOUDS BELOW 12,000 FEET WITH NO
SIGNIFICANT WEATHER AND/OR OBSTRUCTIONS TO VISIBILITY.

NOT ALL STATIONS ARE QUALITY CONTROLLED BY THE NATIONAL
WEATHER SERVICE. USE DATA WITH CAUTION...ESPECIALLY
DEWPOINT OBSERVATIONS.

SCZ027-030-031-034>040-042>050-231000-
...SOUTH CAROLINA...

CITY           SKY/WX    TMP DP  RH WIND       PRES   REMARKS
N CHARLESTON   LGT RAIN  67  62  84 N6        30.09R
WATERFRONT PRK NOT AVBL
FORT JOHNSON   NOT AVBL
MOUNT PLEASANT LGT RAIN  64  64 100 NE5       30.08R
JOHNS ISLAND   LGT RAIN  68  66  94 CALM      30.09R
PINOPOLIS        N/A     70  63  78 E16       30.00R
MONCKS CORNER    N/A     66  64  94 CALM      30.10R
SUMMERVILLE    NOT AVBL
BEAUFORT MCAS  LGT RAIN  68  66  93 MISG      30.10R
BEAUFORT ARPT  LGT RAIN  68  66  94 N10       30.08R
HILTON HEAD IS DRIZZLE   72  66  83 N7        30.09R
GEORGETOWN     NOT AVBL
WALTERBORO     LGT RAIN  66 N/A N/A W3        30.12S
ORANGEBURG     CLOUDY    64  61  90 SW6       30.15R
BARNWELL       RAIN      64  64 100 E8        30.13R
AIKEN          PTSUNNY   63  63 100 CALM      30.16R
MANNING        CLOUDY    64 N/A N/A NE3       30.10R
KINGSTREE      NOT AVBL
COLUMBIA       LGT RAIN  65  60  84 N10       30.11R
SUMTER         CLOUDY    64  60  87 NW7       30.11R
FLORENCE       CLOUDY    64  60  87 NE6       30.10F
MYRTLE BEACH   CLOUDY    66  61  82 N10       30.10R
N MYRTLE BEACH CLOUDY    66  62  87 NE10      30.08F

$$

GAZ063-065-086>088-099>101-113>116-118-119-134-136>141-150-231000-
...GEORGIA...

CITY           SKY/WX    TMP DP  RH WIND       PRES   REMARKS
SAVANNAH ARPT  CLOUDY    68  61  78 N9        30.09R
HUNTER AAF     CLOUDY    67  62  83 N10       30.07R
FORT STEWART   CLOUDY    66  63  88 N7        30.07R
STATESBORO     NOT AVBL
SYLVANIA       RAIN      66  66  97 CALM      30.12R
CLAXTON        HVY RAIN  64  64 100 N3        30.07F
THOMSON        MOCLDY    64  64 100 CALM      30.16S
AUGUSTA-BUSH   CLOUDY    64  62  93 E5        30.11R
AUGUSTA-DANIEL CLOUDY    66  61  84 NW3       30.12R
SWAINSBORO     CLOUDY    68  68 100 NE3       30.11R
VIDALIA        CLOUDY    64  64 100 NE3       30.09R
ALMA           CLOUDY    67  63  87 N3        30.06R
WAYCROSS       CLOUDY    71  66  84 NE7       30.05S
JESUP          CLOUDY    70  64  83 NE6       30.06S
BRUNSWICK      CLOUDY    70  64  83 N7        30.05R
SAINT SIMONS   CLOUDY    73  68  84 NE12      30.03R

$$

SCZ027-028-034-036>038-045-046-048>050-GAZ119-141-231000-
...LAKE AND SUPPLEMENTAL COASTAL OBSERVATIONS...

STATION/POSITION TIME  TEMP    WIND        PRES    WAVE   SWELL
                       AIR SEA DIR/SP/G            HT/PER HT/PER/DIR
                 (UTC) (F)     (DEG/KT/KT) (MB)    (FT/S) (FT/S/D)
UPR LAKE MARION  NOT AVBL
WINYAH BAY       0900   67      10/  6     1018.0S
LAKE MURRAY      0800   65     350/  4/  6 1019.6S
ACE BASIN NERRS  0900   67      30/  3     1018.0S
FORT PULASKI     0900   67     330/ 16/ 19 1018.8R
SAPELO ISLAND    0900   74      50/  9     1017.0S

$$

ANZ835-935-AMZ111-154-330-350-352-354-374-450-454-472-231000-
...C-MAN AND BUOY OBSERVATIONS...

STATION/POSITION TIME  TEMP    WIND        PRES    WAVE   SWELL
                       AIR SEA DIR/SP/G            HT/PER HT/PER/DIR
                 (UTC) (F)     (DEG/KT/KT) (MB)    (FT/S) (FT/S/D)
FOLLY BEACH CMAN 0900   71      20/ 13/ 16 1018.9R
BUOY 41004       0900   70 81  350/ 10/ 14 1018.0R   4/ 5   3/ 7
BUOY 41008       0900   76 82   60/ 17/ 21 1016.6R   5/ 6
5E ST. MARYS GA  0900      83                N/A     5/ 4
FRYING PAN BUOY  NOT AVBL
BUOY 41025       0900   73      20/ 21/ 25 1019.6S   5/ 6   2/ 80/ 9
CAPE LOOKOUT NC  0900   73      40/ 21/ 25 1019.8R
BUOY 41002       0843   79 81   60/  4/  6 1018.0R   3/ 6   3/160/ 6
BUOY 41010       0900   79 84  140/  4/  6 1015.4F   2/ 8   2/ 80/ 8
BUOY 41012       NOT AVBL
ST AUGUSTINE FL  0900   74     260/  3/  5 1016.0R
CAPERS NEARSHORE 0800   72      40/ 17/ 21   N/A
FRIPP NEARSHORE  NOT AVBL


$$



USA.gov is the U.S. government's official web portal to all federal, state and local government web resources and services.